KD4PYR Weather Reports


Display with metric or nautical units.
time (UTC)temp
F
wind
direction
speed
MPH
gust
MPH
rain 1hr
in
rain 24hr
in
rain mn
in
humidity
%
barometer
mb
20260509212842 72 180 3.0 11.0 0.00 0.10 0.10 54 1005.8
20260509211838 72 142 4.0 7.0 0.00 0.10 0.10 53 1005.9
20260509210829 72 178 4.0 8.0 0.00 0.10 0.10 54 1005.9
20260509205834 73 178 3.0 8.0 0.00 0.10 0.10 55 1005.9
20260509204838 72 180 3.0 10.0 0.00 0.10 0.10 56 1005.9
20260509203831 72 153 3.0 10.0 0.00 0.10 0.10 55 1006.0
20260509202822 72 146 3.0 8.0 0.00 0.10 0.10 56 1006.1
20260509201840 72 164 3.0 8.0 0.00 0.10 0.10 58 1006.2
20260509200830 71 158 3.0 11.0 0.00 0.10 0.10 58 1006.3
20260509195834 71 187 5.0 11.0 0.00 0.10 0.10 55 1006.4
20260509194844 71 184 4.0 11.0 0.00 0.10 0.10 58 1006.4
20260509193816 71 168 4.0 10.0 0.00 0.10 0.10 61 1006.5
20260509192833 71 156 3.0 8.0 0.00 0.10 0.10 57 1006.6
20260509191825 71 257 3.0 8.0 0.00 0.10 0.10 63 1006.6
20260509190842 70 171 1.0 9.0 0.00 0.10 0.10 62 1006.6
20260509185824 71 192 2.0 7.0 0.00 0.10 0.10 61 1006.8
20260509184830 70 209 2.0 6.0 0.00 0.10 0.10 62 1006.9
20260509183848 70 236 1.0 10.0 0.00 0.10 0.10 62 1006.8
20260509182840 69 195 2.0 8.0 0.00 0.10 0.10 61 1006.9
20260509181834 69 211 1.0 5.0 0.00 0.10 0.10 61 1006.9
20260509180829 69 229 2.0 6.0 0.00 0.10 0.10 62 1006.9
20260509175832 68 190 1.0 6.0 0.00 0.10 0.10 65 1007.0
20260509174835 68 128 6.0 13.0 0.00 0.10 0.10 65 1007.0
20260509173828 68 227 3.0 10.0 0.00 0.10 0.10 63 1006.9
20260509172847 67 211 1.0 4.0 0.00 0.10 0.10 65 1007.0
20260509171841 67 234 2.0 8.0 0.00 0.10 0.10 67 1007.0
20260509170832 67 239 2.0 6.0 0.00 0.10 0.10 66 1006.9
20260509165836 67 159 2.0 6.0 0.00 0.10 0.10 67 1007.0
20260509164819 66 194 3.0 10.0 0.00 0.10 0.10 67 1007.0
20260509163838 66 225 1.0 9.0 0.00 0.10 0.10 68 1007.1
20260509162830 65 213 3.0 9.0 0.00 0.10 0.10 68 1007.1
20260509161823 65 184 3.0 8.0 0.00 0.10 0.10 69 1007.2
20260509160815 64 140 4.0 9.0 0.00 0.10 0.10 71 1007.0
20260509155815 64 195 3.0 7.0 0.00 0.10 0.10 72 1006.9
20260509154839 62 167 3.0 7.0 0.00 0.10 0.10 72 1007.0
20260509153830 62 175 3.0 9.0 0.00 0.10 0.10 73 1006.9
20260509152822 61 166 3.0 8.0 0.00 0.10 0.10 75 1006.8
20260509151841 61 165 3.0 9.0 0.00 0.10 0.10 76 1006.7
20260509150830 60 171 1.0 8.0 0.00 0.10 0.10 76 1006.7
20260509145816 59 201 2.0 7.0 0.01 0.10 0.10 77 1006.7
20260509144820 59 198 1.0 10.0 0.01 0.10 0.10 79 1006.7
20260509143840 58 185 2.0 8.0 0.01 0.10 0.10 80 1006.6
20260509142831 57 158 3.0 7.0 0.01 0.10 0.10 81 1006.6
20260509141849 57 182 6.0 8.0 0.01 0.10 0.10 83 1006.7
20260509140814 57 183 3.0 8.0 0.01 0.10 0.10 84 1006.5
20260509135817 56 140 1.0 5.0 0.00 0.09 0.09 85 1006.4
20260509134838 56 191 2.0 5.0 0.00 0.09 0.09 85 1006.3
20260509133829 56 191 3.0 6.0 0.00 0.09 0.09 85 1006.4
20260509132820 55 193 1.0 6.0 0.00 0.09 0.09 85 1006.4
20260509131838 55 196 2.0 7.0 0.01 0.09 0.09 85 1006.5
20260509130829 55 9 1.0 4.0 0.01 0.09 0.09 85 1006.7
20260509125832 55 9 1.0 3.0 0.01 0.09 0.09 85 1006.6
20260509124835 55 11 0.0 1.0 0.01 0.09 0.09 85 1006.5
20260509123826 54 11 0.0 1.0 0.01 0.09 0.09 85 1006.5
20260509122818 54 11 0.0 0.0 0.02 0.09 0.09 85 1006.5
20260509121835 53 11 0.0 1.0 0.01 0.08 0.08 85 1006.6
20260509120827 53 11 0.0 1.0 0.01 0.08 0.08 85 1006.5
20260509115814 53 11 0.0 1.0 0.01 0.08 0.08 85 1006.4
20260509114831 53 11 0.0 1.0 0.02 0.08 0.08 85 1006.4
20260509113827 53 11 0.0 1.0 0.02 0.08 0.08 84 1006.4
20260509112819 53 11 0.0 1.0 0.01 0.07 0.07 84 1006.2
20260509111839 53 11 0.0 1.0 0.02 0.07 0.07 84 1006.2
20260509110829 53 349 0.0 1.0 0.02 0.07 0.07 84 1006.3
20260509105830 53 349 0.0 2.0 0.02 0.07 0.07 84 1006.3
20260509104833 53 349 0.0 2.0 0.02 0.06 0.06 84 1006.4
20260509103825 54 348 1.0 1.0 0.02 0.06 0.06 84 1006.4
20260509102815 54 349 0.0 2.0 0.02 0.06 0.06 84 1006.3
20260509101833 54 349 0.0 1.0 0.01 0.05 0.05 84 1006.3
20260509100850 54 349 0.0 1.0 0.02 0.05 0.05 84 1006.4
20260509095830 54 349 0.0 0.0 0.02 0.05 0.05 84 1006.9
20260509094832 54 349 0.0 1.0 0.01 0.04 0.04 84 1006.6
20260509093824 54 349 0.0 2.0 0.01 0.04 0.04 84 1006.6
20260509092816 54 349 0.0 0.0 0.02 0.04 0.04 84 1006.6
20260509091834 54 349 0.0 1.0 0.02 0.04 0.04 84 1006.4
20260509090825 54 349 1.0 2.0 0.01 0.03 0.03 84 1006.3
20260509085828 54 349 0.0 1.0 0.02 0.03 0.03 83 1006.7
20260509084834 54 349 0.0 0.0 0.02 0.03 0.03 83 1006.7
20260509083826 54 349 0.0 0.0 0.02 0.03 0.03 83 1007.0
20260509082817 54 349 0.0 1.0 0.01 0.02 0.02 83 1007.4
20260509081835 54 349 0.0 1.0 0.02 0.02 0.02 83 1007.3
20260509080826 54 349 0.0 2.0 0.02 0.02 0.02 83 1007.4
20260509075832 54 349 0.0 1.0 0.01 0.01 0.01 82 1007.4
20260509074814 54 349 0.0 1.0 0.01 0.01 0.01 82 1007.5
20260509073851 54 349 0.0 0.0 0.01 0.01 0.01 82 1007.4
20260509072821 54 349 0.0 2.0 0.01 0.01 0.01 81 1007.3
20260509071901 55 349 0.0 1.0 0.00 0.00 0.00 81 1007.3
20260509070829 55 349 0.0 2.0 0.00 0.00 0.00 81 1007.3
20260509065833 55 349 0.0 2.0 0.00 0.00 0.00 81 1007.4
20260509064835 55 348 0.0 4.0 0.00 0.00 0.00 80 1007.6
20260509063833 55 346 1.0 4.0 0.00 0.00 0.00 80 1007.7
20260509062825 55 347 0.0 3.0 0.00 0.00 0.00 80 1007.7
20260509061843 55 347 0.0 1.0 0.00 0.00 0.00 80 1007.6
20260509060818 55 347 1.0 2.0 0.00 0.00 0.00 80 1007.7
20260509055822 55 347 1.0 2.0 0.00 0.00 0.00 79 1007.7
20260509054821 55 347 1.0 3.0 0.00 0.00 0.00 79 1007.6
20260509053814 55 347 0.0 4.0 0.00 0.00 0.00 79 1007.6
20260509052832 55 342 0.0 2.0 0.00 0.00 0.00 79 1007.7
20260509051823 56 342 0.0 1.0 0.00 0.00 0.00 79 1007.7
20260509050815 56 343 0.0 2.0 0.00 0.00 0.00 79 1007.7
20260509045816 56 344 0.0 1.0 0.00 0.00 0.00 79 1007.6
20260509044818 56 344 0.0 1.0 0.00 0.00 0.00 79 1007.6
20260509043855 56 344 0.0 3.0 0.00 0.00 0.00 79 1007.7
20260509042827 56 336 0.0 1.0 0.00 0.00 0.00 79 1007.7
20260509041819 56 336 0.0 1.0 0.00 0.00 0.00 79 1007.6
20260509040838 56 336 1.0 3.0 0.00 0.00 0.00 79 1007.9
20260509035820 57 360 2.0 5.0 0.00 0.00 0.00 78 1007.9
20260509034830 57 332 2.0 9.0 0.00 0.00 0.00 77 1007.9
20260509033822 58 336 4.0 8.0 0.00 0.00 0.00 75 1008.1
20260509032814 59 339 4.0 10.0 0.00 0.00 0.00 71 1008.1
20260509031832 60 5 3.0 6.0 0.00 0.00 0.00 64 1008.2
20260509030824 61 326 2.0 8.0 0.00 0.00 0.00 60 1008.1
20260509025827 61 188 0.0 2.0 0.00 0.00 0.00 57 1007.9
20260509024832 62 188 0.0 4.0 0.00 0.00 0.00 57 1007.9
20260509023823 62 186 0.0 2.0 0.00 0.00 0.00 55 1007.9
20260509022815 62 186 0.0 2.0 0.00 0.00 0.00 55 1007.9
20260509021853 62 184 1.0 4.0 0.00 0.00 0.00 55 1007.9
20260509020822 62 184 1.0 2.0 0.00 0.00 0.00 54 1007.8
20260509015847 63 179 1.0 4.0 0.00 0.00 0.00 53 1007.8
20260509014827 63 152 0.0 3.0 0.00 0.00 0.00 54 1007.9
20260509013821 63 147 1.0 5.0 0.00 0.00 0.00 53 1007.8
20260509012841 63 171 1.0 5.0 0.00 0.00 0.00 54 1007.7
20260509011837 63 163 0.0 2.0 0.00 0.00 0.00 54 1007.7
20260509010829 64 165 1.0 2.0 0.00 0.00 0.00 53 1007.7
20260509005834 64 165 1.0 5.0 0.00 0.00 0.00 52 1007.8
20260509004858 64 203 2.0 6.0 0.00 0.00 0.00 51 1007.6
20260509003828 64 190 1.0 6.0 0.00 0.00 0.00 52 1007.5
20260509002821 64 168 1.0 5.0 0.00 0.00 0.00 52 1007.5
20260509001840 65 181 3.0 7.0 0.00 0.00 0.00 51 1007.4
20260509000831 65 184 1.0 8.0 0.00 0.00 0.00 51 1007.5
20260508235835 65 184 2.0 9.0 0.00 0.00 0.00 52 1007.6
20260508234858 65 187 3.0 9.0 0.00 0.00 0.00 51 1007.6
20260508233827 65 177 3.0 5.0 0.00 0.00 0.00 51 1007.6
20260508232820 65 186 2.0 7.0 0.00 0.00 0.00 50 1007.6
20260508231817 66 146 3.0 8.0 0.00 0.00 0.00 50 1007.6
20260508230834 66 173 3.0 7.0 0.00 0.00 0.00 50 1007.5
20260508225840 66 186 3.0 8.0 0.00 0.00 0.00 50 1007.6
20260508224822 66 182 3.0 7.0 0.00 0.00 0.00 49 1007.5
20260508223841 66 185 2.0 14.0 0.00 0.00 0.00 49 1007.4
20260508222832 67 156 3.0 7.0 0.00 0.00 0.00 49 1007.3
20260508221853 67 157 4.0 8.0 0.00 0.00 0.00 48 1007.4
20260508220823 67 158 3.0 8.0 0.00 0.00 0.00 48 1007.2
20260508215825 67 191 5.0 10.0 0.00 0.00 0.00 47 1007.2
20260508214849 67 183 5.0 14.0 0.00 0.00 0.00 47 1007.4
20260508213818 68 148 3.0 10.0 0.00 0.00 0.00 47 1007.4